# STATION: IA061
# STATION NAME: Quad Cities
# LATITUDE: 41.51710
# LONGITUDE: -90.51310
# ELEVATION [ft]: 581
# STATE: IL
Station_ID,Date_Time,air_temp_[C],relative_humidity_[%],wind_speed_[m/s],wind_direction_[degrees],wind_gust_[m/s]
IA061,08/09/2020 12:00 UTC,22.01,95.0,3.33,190.0,5.0
IA061,08/09/2020 12:10 UTC,22.01,95.0,2.78,185.0,5.83
IA061,08/09/2020 12:20 UTC,21.91,95.0,3.61,170.0,6.38
IA061,08/09/2020 12:30 UTC,22.01,95.0,3.33,165.0,7.5
IA061,08/09/2020 12:40 UTC,22.11,95.0,5.0,205.0,6.66
IA061,08/09/2020 12:50 UTC,22.41,95.0,3.61,180.0,6.94
IA061,08/09/2020 13:00 UTC,22.61,95.0,4.16,180.0,6.94
IA061,08/09/2020 13:10 UTC,23.01,95.0,3.88,190.0,6.38
IA061,08/09/2020 13:20 UTC,23.21,95.0,2.5,205.0,5.83
IA061,08/09/2020 13:30 UTC,23.51,95.0,3.88,190.0,6.11
IA061,08/09/2020 13:40 UTC,23.81,95.0,3.88,190.0,6.94
IA061,08/09/2020 13:50 UTC,23.91,95.0,3.88,180.0,6.66
IA061,08/09/2020 14:00 UTC,24.01,95.0,3.33,200.0,5.55
IA061,08/09/2020 14:10 UTC,24.01,95.0,3.33,195.0,5.83
IA061,08/09/2020 14:20 UTC,24.51,95.0,5.0,215.0,7.22
IA061,08/09/2020 14:30 UTC,25.11,95.0,2.78,225.0,7.22
IA061,08/09/2020 14:40 UTC,24.61,95.0,4.72,240.0,8.33
IA061,08/09/2020 14:50 UTC,24.91,95.0,5.27,225.0,6.38
IA061,08/09/2020 15:00 UTC,25.31,95.0,7.5,230.0,9.16
IA061,08/09/2020 15:10 UTC,25.51,95.0,5.27,235.0,8.61
IA061,08/09/2020 15:20 UTC,25.51,95.0,5.27,230.0,8.33
IA061,08/09/2020 15:30 UTC,25.71,95.0,3.88,210.0,7.22
IA061,08/09/2020 15:40 UTC,25.91,95.0,2.22,225.0,6.38
IA061,08/09/2020 15:50 UTC,26.31,95.0,3.06,175.0,5.83
IA061,08/09/2020 16:00 UTC,26.61,95.0,1.67,210.0,5.0
IA061,08/09/2020 16:10 UTC,26.81,95.0,2.5,210.0,5.55
IA061,08/09/2020 16:20 UTC,26.91,95.0,3.33,210.0,5.55
IA061,08/09/2020 16:30 UTC,27.31,95.0,3.33,175.0,6.66
IA061,08/09/2020 16:40 UTC,27.01,95.0,5.0,225.0,7.5
IA061,08/09/2020 16:50 UTC,27.81,95.0,3.06,210.0,6.11
IA061,08/09/2020 17:00 UTC,27.01,95.0,6.38,235.0,8.61
IA061,08/09/2020 17:10 UTC,27.21,95.0,6.38,235.0,8.61
IA061,08/09/2020 17:20 UTC,27.31,95.0,5.27,230.0,7.5
IA061,08/09/2020 17:30 UTC,27.21,95.0,6.38,220.0,9.16
IA061,08/09/2020 17:40 UTC,27.41,95.0,4.44,230.0,6.66
IA061,08/09/2020 17:50 UTC,27.91,95.0,1.67,210.0,6.38
IA061,08/09/2020 18:00 UTC,27.61,95.0,3.33,225.0,6.66
IA061,08/09/2020 18:10 UTC,27.81,95.0,4.16,245.0,5.83
IA061,08/09/2020 18:20 UTC,27.61,95.0,5.0,235.0,7.5
IA061,08/09/2020 18:30 UTC,27.61,95.0,6.38,230.0,7.5
IA061,08/09/2020 18:40 UTC,27.91,95.0,4.44,220.0,7.22
IA061,08/09/2020 18:50 UTC,28.11,95.0,3.33,225.0,5.83
IA061,08/09/2020 19:00 UTC,28.21,95.0,4.16,210.0,7.5
IA061,08/09/2020 19:10 UTC,28.41,95.0,4.16,215.0,6.11
IA061,08/09/2020 19:20 UTC,29.41,95.0,1.67,185.0,5.55
IA061,08/09/2020 19:30 UTC,29.61,95.0,3.33,200.0,5.55
IA061,08/09/2020 19:40 UTC,28.91,95.0,3.88,230.0,6.38
IA061,08/09/2020 19:50 UTC,30.01,95.0,3.88,190.0,5.0
IA061,08/09/2020 20:00 UTC,30.31,95.0,1.94,160.0,6.38
IA061,08/09/2020 20:10 UTC,30.51,95.0,3.88,175.0,5.55
IA061,08/09/2020 20:20 UTC,29.61,95.0,3.88,210.0,5.83
IA061,08/09/2020 20:30 UTC,29.21,95.0,3.61,225.0,4.44
IA061,08/09/2020 20:40 UTC,29.41,95.0,3.33,170.0,5.83
IA061,08/09/2020 20:50 UTC,29.91,95.0,3.06,220.0,4.72
IA061,08/09/2020 21:00 UTC,30.01,95.0,3.06,200.0,5.27
IA061,08/09/2020 21:10 UTC,29.51,95.0,3.06,200.0,6.11
IA061,08/09/2020 21:20 UTC,30.01,95.0,2.5,185.0,4.72
IA061,08/09/2020 21:30 UTC,30.01,95.0,2.78,190.0,5.83
IA061,08/09/2020 21:40 UTC,29.01,95.0,5.83,225.0,7.22
IA061,08/09/2020 21:50 UTC,29.11,95.0,4.44,205.0,7.22
IA061,08/09/2020 22:00 UTC,29.41,95.0,3.88,195.0,6.11
IA061,08/09/2020 22:10 UTC,29.01,95.0,4.44,205.0,6.11
IA061,08/09/2020 22:20 UTC,29.11,95.0,2.78,185.0,5.55
IA061,08/09/2020 22:30 UTC,28.81,95.0,3.88,190.0,5.83
IA061,08/09/2020 22:40 UTC,28.71,95.0,4.16,200.0,6.66
IA061,08/09/2020 22:50 UTC,28.71,95.0,3.88,205.0,6.11
IA061,08/09/2020 23:00 UTC,28.71,95.0,5.0,195.0,6.38
IA061,08/09/2020 23:10 UTC,28.41,95.0,5.27,195.0,7.22
IA061,08/09/2020 23:20 UTC,28.61,95.0,4.16,190.0,6.66
IA061,08/09/2020 23:30 UTC,28.51,95.0,4.44,205.0,6.38
IA061,08/09/2020 23:40 UTC,28.81,95.0,3.88,190.0,7.5
IA061,08/09/2020 23:50 UTC,29.11,95.0,3.88,190.0,6.66
IA061,08/10/2020 00:00 UTC,29.21,95.0,5.27,190.0,7.77
IA061,08/10/2020 00:10 UTC,29.11,95.0,4.44,205.0,7.22
IA061,08/10/2020 00:20 UTC,29.21,95.0,2.78,195.0,6.94
IA061,08/10/2020 00:30 UTC,29.11,95.0,2.78,195.0,5.0
IA061,08/10/2020 00:40 UTC,28.81,95.0,4.44,200.0,6.66
IA061,08/10/2020 00:50 UTC,28.71,95.0,2.22,200.0,7.22
IA061,08/10/2020 01:00 UTC,28.41,95.0,3.06,185.0,5.83
IA061,08/10/2020 01:10 UTC,28.21,95.0,2.78,180.0,6.11
IA061,08/10/2020 01:20 UTC,27.91,95.0,3.06,195.0,5.55
IA061,08/10/2020 01:30 UTC,27.81,95.0,2.22,165.0,6.38
IA061,08/10/2020 01:40 UTC,27.61,95.0,2.5,175.0,5.55
IA061,08/10/2020 01:50 UTC,27.61,95.0,1.39,210.0,5.0
IA061,08/10/2020 02:00 UTC,27.41,95.0,1.94,205.0,4.44
IA061,08/10/2020 02:10 UTC,27.21,95.0,1.94,175.0,4.72
IA061,08/10/2020 02:20 UTC,27.21,95.0,1.67,185.0,3.88
IA061,08/10/2020 02:30 UTC,27.01,95.0,2.78,195.0,5.0
IA061,08/10/2020 02:40 UTC,26.91,95.0,3.33,190.0,4.72
IA061,08/10/2020 02:50 UTC,26.81,95.0,2.5,200.0,5.55
IA061,08/10/2020 03:00 UTC,26.61,95.0,2.5,190.0,5.83
IA061,08/10/2020 03:10 UTC,26.51,95.0,2.78,195.0,5.0
IA061,08/10/2020 03:20 UTC,26.51,95.0,2.78,205.0,5.0
IA061,08/10/2020 03:30 UTC,26.41,95.0,2.5,170.0,4.44
IA061,08/10/2020 03:40 UTC,26.21,95.0,2.22,195.0,4.16
IA061,08/10/2020 03:50 UTC,26.11,95.0,2.22,180.0,4.44
IA061,08/10/2020 04:00 UTC,25.91,95.0,3.06,210.0,5.0
IA061,08/10/2020 04:10 UTC,25.91,95.0,2.5,195.0,4.72
IA061,08/10/2020 04:20 UTC,25.71,95.0,2.78,200.0,4.72
IA061,08/10/2020 04:30 UTC,25.71,95.0,3.33,200.0,5.0
IA061,08/10/2020 04:40 UTC,25.71,95.0,3.06,195.0,5.27
IA061,08/10/2020 04:50 UTC,25.71,95.0,2.78,200.0,5.0
IA061,08/10/2020 05:00 UTC,25.71,95.0,2.22,205.0,5.55
IA061,08/10/2020 05:10 UTC,25.71,95.0,4.44,200.0,6.94
IA061,08/10/2020 05:20 UTC,25.81,95.0,4.44,195.0,7.5
IA061,08/10/2020 05:30 UTC,25.71,95.0,2.78,185.0,6.38
IA061,08/10/2020 05:40 UTC,25.81,95.0,5.0,220.0,7.77
IA061,08/10/2020 05:50 UTC,25.71,95.0,4.16,200.0,6.38
IA061,08/10/2020 06:00 UTC,25.71,95.0,3.88,205.0,7.77
IA061,08/10/2020 06:10 UTC,25.71,95.0,5.0,220.0,7.22
IA061,08/10/2020 06:20 UTC,25.71,95.0,3.88,210.0,6.38
IA061,08/10/2020 06:30 UTC,25.61,95.0,3.61,225.0,5.83
IA061,08/10/2020 06:50 UTC,25.31,95.0,3.33,220.0,5.83
IA061,08/10/2020 07:00 UTC,25.21,95.0,2.78,190.0,5.27
IA061,08/10/2020 07:10 UTC,25.11,95.0,1.94,195.0,3.33
IA061,08/10/2020 07:20 UTC,24.91,95.0,2.78,220.0,4.72
IA061,08/10/2020 07:30 UTC,24.71,95.0,2.22,210.0,4.72
IA061,08/10/2020 07:40 UTC,24.71,95.0,2.5,215.0,4.44
IA061,08/10/2020 07:50 UTC,24.71,95.0,2.5,220.0,5.27
IA061,08/10/2020 08:00 UTC,24.81,95.0,1.94,230.0,3.88
IA061,08/10/2020 08:10 UTC,24.91,95.0,2.5,225.0,
IA061,08/10/2020 08:20 UTC,25.11,95.0,2.78,235.0,5.0
IA061,08/10/2020 08:30 UTC,25.21,95.0,2.78,220.0,4.44
IA061,08/10/2020 08:40 UTC,25.21,95.0,2.5,235.0,4.44
IA061,08/10/2020 08:50 UTC,25.11,95.0,2.78,225.0,4.72
IA061,08/10/2020 09:00 UTC,25.01,95.0,3.06,220.0,5.0
IA061,08/10/2020 09:10 UTC,24.91,95.0,2.5,225.0,4.44
IA061,08/10/2020 09:20 UTC,24.91,95.0,2.22,235.0,5.55
IA061,08/10/2020 09:30 UTC,24.91,95.0,3.06,235.0,6.38
IA061,08/10/2020 09:40 UTC,24.71,95.0,1.94,255.0,5.27
IA061,08/10/2020 09:50 UTC,24.61,95.0,1.39,240.0,4.16
IA061,08/10/2020 10:00 UTC,24.61,95.0,2.78,240.0,3.88
IA061,08/10/2020 10:10 UTC,24.51,95.0,1.67,250.0,3.61
IA061,08/10/2020 10:20 UTC,24.31,95.0,2.5,240.0,4.16
IA061,08/10/2020 10:30 UTC,24.31,95.0,1.94,245.0,3.88
IA061,08/10/2020 10:40 UTC,24.31,95.0,1.67,210.0,3.88
IA061,08/10/2020 10:50 UTC,24.31,95.0,1.67,235.0,3.88
IA061,08/10/2020 11:00 UTC,24.21,95.0,2.78,235.0,3.61
IA061,08/10/2020 11:10 UTC,24.21,95.0,1.67,250.0,4.44
IA061,08/10/2020 11:20 UTC,24.21,95.0,1.67,255.0,3.88
IA061,08/10/2020 11:30 UTC,24.11,95.0,2.5,225.0,3.88
IA061,08/10/2020 11:40 UTC,24.21,95.0,3.06,235.0,3.88
IA061,08/10/2020 11:50 UTC,24.21,95.0,3.06,235.0,4.16
IA061,08/10/2020 12:00 UTC,24.21,95.0,2.5,240.0,3.88
IA061,08/10/2020 12:10 UTC,24.31,95.0,3.33,230.0,4.44
IA061,08/10/2020 12:20 UTC,24.41,95.0,1.94,230.0,3.88
IA061,08/10/2020 12:30 UTC,24.31,95.0,2.5,225.0,3.88
IA061,08/10/2020 12:40 UTC,24.51,95.0,1.94,245.0,4.16
IA061,08/10/2020 12:50 UTC,24.61,95.0,2.78,225.0,3.33
IA061,08/10/2020 13:00 UTC,25.01,95.0,2.5,255.0,4.16
IA061,08/10/2020 13:10 UTC,25.11,95.0,3.33,240.0,4.44
IA061,08/10/2020 13:20 UTC,25.51,95.0,3.06,245.0,6.11
IA061,08/10/2020 13:40 UTC,26.31,95.0,0.83,245.0,1.94
IA061,08/10/2020 14:10 UTC,26.61,95.0,1.39,240.0,3.33
IA061,08/10/2020 14:40 UTC,27.21,95.0,3.06,210.0,5.55
IA061,08/10/2020 14:50 UTC,27.41,95.0,2.5,250.0,6.38
IA061,08/10/2020 15:00 UTC,27.71,95.0,1.94,215.0,4.16
IA061,08/10/2020 15:10 UTC,27.61,95.0,3.06,290.0,5.0
IA061,08/10/2020 15:20 UTC,27.71,95.0,3.06,285.0,5.0
IA061,08/10/2020 15:30 UTC,27.91,95.0,3.33,265.0,5.0
IA061,08/10/2020 15:40 UTC,27.91,95.0,3.88,275.0,5.83
IA061,08/10/2020 15:50 UTC,27.91,95.0,3.61,265.0,6.11
IA061,08/10/2020 16:00 UTC,28.11,95.0,3.33,260.0,5.83
IA061,08/10/2020 16:10 UTC,28.01,95.0,3.33,265.0,7.5
IA061,08/10/2020 16:20 UTC,28.21,95.0,2.5,285.0,5.55
IA061,08/10/2020 16:30 UTC,28.31,95.0,4.16,240.0,5.0
IA061,08/10/2020 16:40 UTC,28.51,95.0,2.78,245.0,4.44
IA061,08/10/2020 16:50 UTC,28.91,95.0,0.56,285.0,4.16
IA061,08/10/2020 17:00 UTC,28.91,95.0,4.16,260.0,5.55
IA061,08/10/2020 17:10 UTC,28.91,95.0,3.88,300.0,5.55
IA061,08/10/2020 17:20 UTC,29.21,95.0,2.78,240.0,3.88
IA061,08/10/2020 17:30 UTC,29.51,95.0,2.5,240.0,3.88
IA061,08/10/2020 17:40 UTC,29.51,95.0,4.44,225.0,5.55
IA061,08/10/2020 17:50 UTC,29.71,95.0,3.33,225.0,5.0
IA061,08/10/2020 18:00 UTC,29.61,95.0,3.61,235.0,7.22
IA061,08/10/2020 18:10 UTC,29.61,95.0,2.78,240.0,5.0
IA061,08/10/2020 18:20 UTC,29.41,95.0,5.55,210.0,7.5
IA061,08/10/2020 18:30 UTC,22.81,95.0,16.1,250.0,31.37
IA061,08/10/2020 18:40 UTC,19.01,95.0,18.04,320.0,24.15
IA061,08/10/2020 18:50 UTC,17.51,95.0,27.76,315.0,38.03
IA061,08/10/2020 19:00 UTC,18.71,95.0,25.26,335.0,33.59
IA061,08/10/2020 19:10 UTC,19.91,95.0,20.26,320.0,32.76
IA061,08/10/2020 19:20 UTC,20.51,95.0,15.82,335.0,25.26
IA061,08/10/2020 19:30 UTC,21.11,95.0,17.76,340.0,25.54
IA061,08/10/2020 19:40 UTC,20.91,95.0,13.05,355.0,23.32
IA061,08/10/2020 19:50 UTC,21.21,95.0,12.49,355.0,19.71
IA061,08/10/2020 20:00 UTC,20.91,95.0,10.55,355.0,16.1
IA061,08/10/2020 20:10 UTC,21.41,95.0,10.55,0.0,16.93
IA061,08/10/2020 20:20 UTC,21.61,95.0,6.66,0.0,12.77
IA061,08/10/2020 20:30 UTC,21.71,95.0,5.83,0.0,9.99
IA061,08/10/2020 20:40 UTC,22.21,95.0,4.44,20.0,10.27
IA061,08/10/2020 20:50 UTC,22.21,95.0,4.16,45.0,9.44
IA061,08/10/2020 21:00 UTC,21.91,95.0,4.44,60.0,9.99
IA061,08/10/2020 21:10 UTC,22.01,95.0,5.55,100.0,7.22
IA061,08/10/2020 21:20 UTC,22.11,95.0,4.72,70.0,8.33
IA061,08/10/2020 21:30 UTC,22.31,95.0,4.44,95.0,5.27
IA061,08/10/2020 21:40 UTC,22.71,95.0,4.16,75.0,6.38
IA061,08/10/2020 21:50 UTC,22.91,95.0,5.27,115.0,6.66
IA061,08/10/2020 22:00 UTC,23.11,95.0,3.06,145.0,5.27
IA061,08/10/2020 22:10 UTC,22.91,95.0,3.06,145.0,4.44
IA061,08/10/2020 22:20 UTC,22.51,95.0,9.44,240.0,12.77
IA061,08/10/2020 22:30 UTC,22.61,95.0,4.44,210.0,11.66
IA061,08/10/2020 22:40 UTC,22.71,95.0,7.5,220.0,12.21
IA061,08/10/2020 22:50 UTC,22.71,95.0,5.27,215.0,12.21
IA061,08/10/2020 23:00 UTC,22.71,95.0,5.55,205.0,9.16
IA061,08/10/2020 23:10 UTC,22.61,95.0,2.78,225.0,8.33
IA061,08/10/2020 23:20 UTC,22.61,95.0,3.88,200.0,5.55
IA061,08/10/2020 23:30 UTC,22.51,95.0,1.67,195.0,7.22
IA061,08/10/2020 23:40 UTC,22.31,95.0,5.0,290.0,6.38
IA061,08/10/2020 23:50 UTC,22.41,95.0,2.22,330.0,5.0
IA061,08/11/2020 00:00 UTC,22.71,95.0,1.67,335.0,3.06
IA061,08/11/2020 00:10 UTC,22.61,95.0,3.06,330.0,3.61
IA061,08/11/2020 00:20 UTC,22.41,95.0,4.16,315.0,4.72
IA061,08/11/2020 00:30 UTC,22.31,95.0,1.94,330.0,4.16
IA061,08/11/2020 00:40 UTC,22.21,95.0,1.94,335.0,3.61
IA061,08/11/2020 00:50 UTC,22.01,95.0,3.06,325.0,3.88
IA061,08/11/2020 01:00 UTC,21.91,95.0,3.06,315.0,4.44
IA061,08/11/2020 01:10 UTC,21.91,95.0,2.22,330.0,5.55
IA061,08/11/2020 01:20 UTC,21.91,95.0,1.39,325.0,3.33
IA061,08/11/2020 01:30 UTC,21.51,95.0,2.22,235.0,2.78
IA061,08/11/2020 01:40 UTC,21.81,95.0,1.39,270.0,2.5
IA061,08/11/2020 02:00 UTC,21.51,95.0,1.39,300.0,1.94
IA061,08/11/2020 02:10 UTC,21.71,95.0,2.22,240.0,2.78
IA061,08/11/2020 02:20 UTC,21.51,95.0,2.5,225.0,3.33
IA061,08/11/2020 02:30 UTC,21.51,95.0,3.06,240.0,4.16
IA061,08/11/2020 02:40 UTC,21.21,95.0,1.94,250.0,3.61
IA061,08/11/2020 02:50 UTC,21.11,95.0,1.67,265.0,2.78
IA061,08/11/2020 03:00 UTC,20.91,95.0,2.22,255.0,2.78
IA061,08/11/2020 03:10 UTC,20.81,95.0,2.5,250.0,2.78
IA061,08/11/2020 03:20 UTC,20.81,95.0,1.94,245.0,3.06
IA061,08/11/2020 03:30 UTC,20.81,95.0,2.5,240.0,3.06
IA061,08/11/2020 03:40 UTC,20.71,95.0,1.94,235.0,2.78
IA061,08/11/2020 03:50 UTC,20.71,95.0,1.94,240.0,2.5
IA061,08/11/2020 04:00 UTC,20.51,95.0,1.11,260.0,2.5
IA061,08/11/2020 04:10 UTC,20.11,95.0,2.22,265.0,3.61
IA061,08/11/2020 04:20 UTC,20.11,95.0,2.5,265.0,3.88
IA061,08/11/2020 04:30 UTC,20.01,95.0,1.39,280.0,3.06
IA061,08/11/2020 04:40 UTC,19.81,95.0,1.94,270.0,2.78
IA061,08/11/2020 04:50 UTC,19.81,95.0,2.22,285.0,2.78
IA061,08/11/2020 05:00 UTC,19.71,95.0,1.94,270.0,2.5
IA061,08/11/2020 05:10 UTC,19.71,95.0,2.22,290.0,2.78
IA061,08/11/2020 05:20 UTC,19.71,95.0,2.78,290.0,3.61
IA061,08/11/2020 05:30 UTC,19.61,95.0,2.5,290.0,3.33
IA061,08/11/2020 05:40 UTC,19.81,95.0,2.5,300.0,3.33
IA061,08/11/2020 05:50 UTC,19.81,95.0,2.22,295.0,3.06
IA061,08/11/2020 06:00 UTC,19.81,95.0,3.06,300.0,4.16
IA061,08/11/2020 06:10 UTC,19.61,95.0,2.78,295.0,3.61
IA061,08/11/2020 06:20 UTC,19.51,95.0,3.06,290.0,3.88
IA061,08/11/2020 06:30 UTC,19.51,95.0,3.06,335.0,4.44
IA061,08/11/2020 06:40 UTC,19.31,95.0,4.16,315.0,5.83
IA061,08/11/2020 06:50 UTC,19.11,95.0,3.33,320.0,4.44
IA061,08/11/2020 07:00 UTC,19.11,95.0,3.06,325.0,3.88
IA061,08/11/2020 07:10 UTC,19.01,95.0,2.5,350.0,3.61
IA061,08/11/2020 07:20 UTC,18.91,95.0,2.5,325.0,3.88
IA061,08/11/2020 07:30 UTC,18.91,95.0,2.78,330.0,3.61
IA061,08/11/2020 07:40 UTC,18.91,95.0,2.78,315.0,4.16
IA061,08/11/2020 07:50 UTC,18.81,95.0,2.78,340.0,3.61
IA061,08/11/2020 08:00 UTC,18.91,95.0,2.22,320.0,3.88
IA061,08/11/2020 08:10 UTC,18.71,95.0,2.78,350.0,3.33
IA061,08/11/2020 08:20 UTC,18.51,95.0,2.5,335.0,3.33
IA061,08/11/2020 08:30 UTC,18.51,95.0,2.5,345.0,3.06
IA061,08/11/2020 08:40 UTC,18.11,95.0,2.5,345.0,3.88
IA061,08/11/2020 08:50 UTC,18.11,95.0,2.78,350.0,3.61
IA061,08/11/2020 09:00 UTC,18.01,95.0,2.22,355.0,3.33
IA061,08/11/2020 09:10 UTC,17.91,95.0,1.39,0.0,3.06
IA061,08/11/2020 09:20 UTC,18.01,95.0,1.67,345.0,2.5
IA061,08/11/2020 09:30 UTC,18.01,95.0,1.11,325.0,2.22
IA061,08/11/2020 09:40 UTC,17.61,95.0,2.5,0.0,3.06
IA061,08/11/2020 09:50 UTC,17.51,95.0,1.67,0.0,3.06
IA061,08/11/2020 10:00 UTC,17.61,95.0,0.83,40.0,2.22
IA061,08/11/2020 10:10 UTC,17.51,95.0,1.11,5.0,2.5
IA061,08/11/2020 10:20 UTC,17.31,95.0,2.22,0.0,3.61
IA061,08/11/2020 10:30 UTC,17.41,95.0,1.11,355.0,3.33
IA061,08/11/2020 10:40 UTC,17.41,95.0,1.67,355.0,2.5
IA061,08/11/2020 10:50 UTC,17.31,95.0,1.67,0.0,2.5
IA061,08/11/2020 11:00 UTC,17.51,95.0,0.83,0.0,2.22
IA061,08/11/2020 11:10 UTC,17.41,95.0,0.83,270.0,1.39
IA061,08/11/2020 11:20 UTC,17.41,95.0,0.83,265.0,1.94
IA061,08/11/2020 11:30 UTC,17.51,95.0,0.56,320.0,1.67
IA061,08/11/2020 11:40 UTC,17.61,95.0,1.39,260.0,1.67
IA061,08/11/2020 11:50 UTC,17.81,95.0,1.39,300.0,1.94
IA061,08/11/2020 12:00 UTC,17.91,95.0,0.56,300.0,1.94
